Weather Roundup
Issued by NWS

Home | Current Version | Previous Version | Graphics & Text | Print | Product List | Glossary Off
Versions: 1 2 3 4 5 6 7 8 9 10 11 12 13 14 15 16 17 18 19 20 21 22 23 24 25 26 27 28 29 30 31 32 33 34 35 36 37 38 39 40 41 42 43 44 45 46 47 48 49 50

000
NZUS93 KARX 171359
HRRWXR

CURRENT HOURLY OBSERVATIONS ACROSS
MUCH OF THE UPPER MISSISSIPPI VALLEY
NATIONAL WEATHER SERVICE LA CROSSE WI
900 AM CDT WED SEP 17 2014


...SOUTHEAST MINNESOTA...


CITY           SKY/WX    TMP DP  RH WIND       PRES   REMARKS
ROCHESTER      CLOUDY    54  49  83 S7        29.99S
ROCHESTER/MAYO FAIR      55  47  73 CALM      29.99R
WINONA         PTSUNNY   54  52  94 SE5       29.99F
AUSTIN         PTSUNNY   52  48  87 CALM      29.98S
ALBERT LEA     MOSUNNY   55  50  82 S3        29.97S
DODGE CENTER   MOSUNNY   57  50  77 SW7       29.98R
PRESTON        PTSUNNY   52  51  95 S5        30.00S
OWATONNA       MOSUNNY   57  48  72 S3        29.97S
FARIBAULT      SUNNY     61  46  59 S6        29.96S
$$

...ELSEWHERE IN MINNESOTA...


CITY           SKY/WX    TMP DP  RH WIND       PRES   REMARKS
MINNEAPOLIS    MOSUNNY   59  49  69 S8        29.95F
INTNL FALLS    CLOUDY    49  45  86 NE13      29.96R
DULUTH         MOSUNNY   56  45  66 N8G21     29.94R
RED WING       PTSUNNY   57  48  72 CALM      29.96S
REDWOOD FALLS  SUNNY     57  51  80 S5        29.93S
MANKATO        SUNNY     55  46  71 S7        29.95S
WORTHINGTON    SUNNY     55  50  82 S3        29.95S
FAIRMONT       MOSUNNY   54  46  76 S5        29.95S
$$

...SOUTHWEST WISCONSIN...


CITY           SKY/WX    TMP DP  RH WIND       PRES   REMARKS
LA CROSSE      CLOUDY    54  49  83 SE6       30.00S
PRAIRIE DU CHI CLOUDY    48  47  97 CALM      30.02S
BOSCOBEL       FOG       47  46  97 CALM      30.03F VSB 1/4
LONE ROCK      NOT AVBL
PLATTEVILLE    PTSUNNY   52  47  84 CALM      30.03S
FORT MC COY    CLOUDY    46  44  95 CALM      30.02S
VIROQUA        CLOUDY    51  47  83 CALM      30.01F
WIS DELLS      CLOUDY    52  46  79 SW5       30.02S
$$

...ELSEWHERE IN WISCONSIN...


CITY           SKY/WX    TMP DP  RH WIND       PRES   REMARKS
MILWAUKEE      MOSUNNY   57  44  62 W3        30.04F
MADISON        MOSUNNY   56  49  77 CALM      30.03S
GREEN BAY      SUNNY     54  48  80 SW6       30.01S
EAU CLAIRE     NOT AVBL
BLACK RVR FLS  CLOUDY    47  47 100 CALM      29.99F
MEDFORD        PTSUNNY   49  45  87 SW6       29.98S
WAUSAU         PTSUNNY   50  46  86 S10       29.98S
WIS RAPIDS     CLOUDY    49  46  90 SW5       30.02S
MARSHFIELD     PTSUNNY   49  46  90 CALM      30.00S
RICE LAKE      PTSUNNY   49  49  97 CALM      29.98S
$$

...NORTHEAST IOWA...


CITY           SKY/WX    TMP DP  RH WIND       PRES   REMARKS
WATERLOO       SUNNY     54  49  83 SE5       29.98F
DUBUQUE        CLOUDY    53  48  83 CALM      30.01F
DECORAH        CLOUDY    50  48  93 SE3       30.00S
MASON CITY     SUNNY     54  50  86 S5        29.99F
CHARLES CITY   MOSUNNY   54  50  87 VRB3      29.99F
OELWEIN        PTSUNNY   54  50  87 S6        30.01S
$$

...ELSEWHERE IN IOWA...


CITY           SKY/WX    TMP DP  RH WIND       PRES   REMARKS
DES MOINES     CLOUDY    60  52  74 SE5       29.96S
IOWA CITY      CLOUDY    52  50  93 SE3       30.02R
FORT DODGE     CLOUDY    54  48  82 SE3       29.97R
MARSHALLTOWN   CLOUDY    53  50  89 SE6       29.97F
CEDAR RAPIDS   CLOUDY    51  50  96 SE5       29.99S
$$

...NORTHERN ILLINOIS...


CITY           SKY/WX    TMP DP  RH WIND       PRES   REMARKS
CHICAGO-OHARE  MOSUNNY   56  46  69 W3        30.04F
DUPAGE         SUNNY     56  49  77 CALM      30.04F
CHICAGO-MIDWAY MOSUNNY   59  48  67 CALM      30.04F
MOLINE         SUNNY     55  51  86 CALM      30.01F
ROCKFORD       MOSUNNY   54  48  80 CALM      30.06F
STERLING       SUNNY     55  48  76 SE3       30.03S
PEORIA         PTSUNNY   59  52  77 S3        30.03S
$$

NOTE: "FAIR" INDICATES FEW OR NO CLOUDS BELOW 12,000 FEET WITH NO
SIGNIFICANT WEATHER AND/OR OBSTRUCTIONS TO VISIBILITY. WIND
SPEEDS ARE IN MILES-PER-HOUR.



USA.gov is the U.S. government's official web portal to all federal, state and local government web resources and services.